Location: Eppenbrunn
(49.1158°N, 7.5601°E)
Time: 08:30:17
(UTC+00:00)

MetOp-B - Pass Details

Date: 09 April 2020
Orbit: 819 x 822 km, 98.7° (Epoch: 01 June)

Event Time Altitude Azimuth Distance (km) Brightness Sun altitude
Exits shadow 20:32:22 29° 180° (S) 1,473 5.1 -20.8°
Maximum altitude 20:35:10 70° 257° (WSW) 878 4.3 -21.2°
Drops below altitude 10° 20:40:32 10° 341° (NNW) 2,431 7.5 -21.8°
Sets 20:42:55 0° 344° (NNW) 3,368 8.3 -22.1°
